Flag for U.S.A. Weather past 2 weeks in French Lick, Indiana, U.S.A.

Now
68 °F

Sunny.


Feels Like: 68 °F
Forecast: 47 / 68 °F
Wind: 13 mph from West

Location: Huntingburg Airport

Current Time: Mar 31, 2015 at 1:40:32 PM

Latest Report: Mar 31, 2015 at 1:15 PM


Visibility: 10 mi

Pressure: 29.91 "Hg

Humidity: 40%

Dew point: 43 °F

Location of French LickLocation

Historic Weather in French Lick — Graph

°F

French Lick temperature yesterday

Maximum temperature yesterday: 63 °F (at 3:55 PM)
Minimum temperature yesterday: 39 °F (at 7:55 AM)
Average temperature yesterday: 53 °F

Past Weeks' High & Low Weather Summary

 TemperatureHumidityPressure
High73 °F (Mar 16, 2:35 PM)93% (Mar 21, 8:15 AM)30.36 "Hg (Mar 21, 8:15 AM)
Low21 °F (Mar 28, 6:55 AM)23% (Mar 22, 2:35 PM)29.86 "Hg (Mar 26, 6:15 AM)
Average46 °F60%30.11 "Hg
* Reported Mar 16 12:15 PM — Mar 31 12:35 PM, French Lick, Weather by CustomWeather, © 2015

Note: Actual official high and low records may vary slightly from our data, if they occured in-between our weather recording intervals... More about our weather records

Advertising

French Lick weather history for previous 24 hours

 ConditionsComfort  
Time TempWeatherWind HumidityBarometerVisibility
12:35 PM
Tue, Mar 31
66 °FSunny.14 mph43%29.91 "Hg10 mi
12:15 PM66 °FSunny.13 mph43%29.92 "Hg10 mi
11:55 AM64 °FSunny.13 mph46%29.91 "Hg10 mi
11:35 AM64 °FSunny.13 mph46%29.91 "Hg10 mi
11:15 AM63 °FSunny.17 mph49%29.91 "Hg10 mi
10:55 AM63 °FSunny.15 mph49%29.91 "Hg10 mi
10:35 AM61 °FSunny.12 mph52%29.91 "Hg10 mi
10:15 AM57 °FSunny.13 mph55%29.91 "Hg10 mi
9:55 AM55 °FSunny.8 mph55%29.91 "Hg10 mi
9:35 AM54 °FSunny.10 mph54%29.91 "Hg10 mi
9:15 AM52 °FSunny.9 mph54%29.90 "Hg10 mi
8:55 AM50 °FSunny.9 mph54%29.90 "Hg10 mi
8:35 AM48 °FSunny.8 mph58%29.91 "Hg10 mi
8:15 AM46 °FClear.9 mph62%29.90 "Hg10 mi
7:55 AM46 °FClear.9 mph57%29.90 "Hg10 mi
7:35 AM46 °FClear.12 mph57%29.90 "Hg10 mi
7:15 AM46 °FClear.13 mph57%29.90 "Hg10 mi
6:55 AM46 °FClear.13 mph53%29.90 "Hg10 mi
6:35 AM46 °FClear.13 mph57%29.90 "Hg10 mi
6:15 AM46 °FClear.12 mph53%29.91 "Hg10 mi
5:55 AM46 °FClear.9 mph53%29.91 "Hg10 mi
5:35 AM46 °FClear.9 mph53%29.92 "Hg10 mi
5:15 AM46 °FClear.9 mph53%29.92 "Hg10 mi
4:55 AM46 °FClear.7 mph53%29.93 "Hg10 mi
4:35 AM46 °FClear.8 mph53%29.94 "Hg10 mi
4:15 AM46 °FClear.8 mph53%29.95 "Hg10 mi
3:55 AM46 °FClear.8 mph53%29.96 "Hg10 mi
3:35 AM45 °FClear.7 mph57%29.97 "Hg10 mi
3:15 AM45 °FClear.6 mph57%29.98 "Hg10 mi
2:55 AM46 °FClear.5 mph53%30.00 "Hg10 mi
2:35 AM46 °FClear.7 mph53%30.00 "Hg10 mi
2:15 AM48 °FClear.6 mph46%30.01 "Hg10 mi
1:55 AM48 °FClear.5 mph46%30.02 "Hg10 mi
1:35 AM48 °FClear.5 mph46%30.02 "Hg10 mi
1:15 AM48 °FClear.5 mph46%30.03 "Hg10 mi
12:55 AM48 °FClear.5 mph46%30.04 "Hg10 mi
12:35 AM48 °FClear.5 mph46%30.04 "Hg10 mi
12:15 AM50 °FClear.5 mph43%30.05 "Hg10 mi
11:55 PM
Mon, Mar 30
52 °FClear.3 mph41%30.05 "Hg10 mi
11:35 PM50 °FClear.5 mph47%30.05 "Hg10 mi
10:55 PM50 °FClear.7 mph47%30.06 "Hg10 mi
10:35 PM50 °FClear.7 mph47%30.06 "Hg10 mi
10:15 PM52 °FClear.6 mph44%30.07 "Hg10 mi
9:55 PM52 °FClear.6 mph44%30.07 "Hg10 mi
9:35 PM52 °FClear.5 mph44%30.08 "Hg10 mi
9:15 PM52 °FClear.6 mph44%30.07 "Hg10 mi
8:55 PM54 °FSunny.8 mph41%30.07 "Hg10 mi
8:35 PM54 °FSunny.9 mph41%30.07 "Hg10 mi
7:55 PM57 °FSunny.6 mph36%30.08 "Hg10 mi
7:35 PM57 °FSunny.8 mph41%30.09 "Hg10 mi
7:15 PM61 °FSunny.10 mph31%30.08 "Hg10 mi
6:55 PM61 °FSunny.9 mph34%30.09 "Hg10 mi
6:35 PM63 °FSunny.6 mph32%30.09 "Hg10 mi
6:15 PM63 °FSunny.6 mph27%30.09 "Hg10 mi
5:55 PM63 °FSunny.8 mph30%30.10 "Hg10 mi
5:35 PM63 °FSunny.6 mph30%30.10 "Hg10 mi
5:15 PM63 °FSunny.5 mph30%30.11 "Hg10 mi
4:55 PM63 °FSunny.5 mph30%30.11 "Hg10 mi
4:35 PM63 °FSunny.5 mph30%30.12 "Hg10 mi
4:15 PM63 °FSunny.12 mph30%30.13 "Hg10 mi
3:55 PM63 °FSunny.8 mph30%30.12 "Hg10 mi
3:35 PM61 °FSunny.7 mph31%30.13 "Hg10 mi
3:15 PM61 °FSunny.7 mph31%30.14 "Hg10 mi
2:55 PM61 °FSunny.7 mph34%30.15 "Hg10 mi
2:35 PM61 °FSunny.12 mph34%30.16 "Hg10 mi
2:15 PM61 °FSunny.10 mph36%30.17 "Hg10 mi
1:55 PM59 °FSunny.13 mph39%30.18 "Hg10 mi
1:35 PM59 °FSunny.16 mph36%30.17 "Hg10 mi
1:15 PM59 °FSunny.13 mph36%30.19 "Hg10 mi
Weather by CustomWeather, © 2015

See weather overviewHow to use our weather pages